Flag for Belarus Weather past 2 weeks in Barysaw, Belarus

Now
75 °F

Sunny.


Feels Like: 78 °F
Forecast: 62 / 88 °F
Wind: 3 mph from Southwest

Location: Minsk

Current Time: Jul 29, 2014 at 9:03:04 AM

Latest Report: Jul 29, 2014 at 8:30 AM


Visibility: 10 mi

Pressure: 30.04 "Hg

Humidity: 57%

Dew point: 59 °F

Location of BarysawLocation

Historic Weather in Barysaw — Graph

°F

Barysaw temperature yesterday

Maximum temperature yesterday: 86 °F (at 12:30 PM)
Minimum temperature yesterday: 59 °F (at 4:30 AM)
Average temperature yesterday: 75 °F

Past Weeks' High & Low Weather Summary

 TemperatureHumidityPressure
High86 °F (Jul 27, 2:30 PM)100% (Jul 14, 7:00 AM)30.18 "Hg (Jul 14, 7:00 AM)
Low50 °F (Jul 24, 5:30 AM)28% (Jul 26, 12:30 PM)29.86 "Hg (Jul 21, 6:01 AM)
Average69 °F68%30.06 "Hg
* Reported Jul 14 7:00 AM — Jul 29 7:30 AM, Barysaw, Weather by CustomWeather, © 2014

Note: Actual official high and low records may vary slightly from our data, if they occured in-between our weather recording intervals... More about our weather records

Advertising

Barysaw weather history for previous 24 hours

 ConditionsComfort  
Time TempWeatherWind HumidityBarometerVisibility
7:30 AM
Jul 29
68 °FSunny.1 mph83%30.04 "Hg10 mi
7:00 AM66 °FSunny.No wind83%30.04 "Hg10 mi
6:30 AM64 °FSunny.1 mph88%30.01 "Hg10 mi
6:00 AM63 °FClear.1 mph88%30.01 "Hg10 mi
5:30 AM63 °FClear.3 mph88%30.01 "Hg10 mi
5:00 AM63 °FLight fog.No wind83%30.01 "HgN/A
4:30 AM61 °FLight fog.3 mph94%30.01 "HgN/A
4:00 AM63 °FClear.No wind94%30.01 "Hg10 mi
3:30 AM63 °FClear.3 mph88%30.04 "Hg10 mi
3:00 AM64 °FLight fog.3 mph88%30.04 "HgN/A
2:30 AM64 °FLight fog.1 mph88%30.04 "HgN/A
2:00 AM63 °FLight fog.No wind94%30.04 "HgN/A
1:30 AM63 °FLight fog.1 mph94%30.04 "HgN/A
1:00 AM66 °FClear.3 mph83%30.04 "Hg10 mi
12:30 AM68 °FClear.3 mph78%30.04 "Hg10 mi
12:00 AM66 °FClear.3 mph83%30.04 "Hg10 mi
11:30 PM
Jul 28
68 °FClear.3 mph83%30.04 "Hg10 mi
11:00 PM70 °FClear.No wind78%30.04 "Hg10 mi
10:30 PM72 °FClear.No wind73%30.04 "Hg10 mi
10:00 PM72 °FSunny.3 mph73%30.04 "Hg10 mi
9:30 PM73 °FSunny.6 mph69%30.04 "Hg10 mi
9:00 PM77 °FSunny.6 mph61%30.04 "Hg10 mi
8:30 PM81 °FSunny.6 mph51%30.04 "Hg10 mi
8:00 PM82 °FSunny.8 mph45%30.04 "Hg10 mi
7:30 PM84 °FSunny.6 mph40%30.04 "Hg10 mi
7:00 PM84 °FPassing clouds.6 mph37%30.04 "HgN/A
6:30 PM84 °FBroken clouds.3 mph40%30.04 "HgN/A
6:00 PM84 °FBroken clouds.6 mph40%30.04 "HgN/A
5:30 PM84 °FBroken clouds.1 mph43%30.07 "HgN/A
5:00 PM86 °FBroken clouds.8 mph33%30.07 "HgN/A
4:30 PM86 °FBroken clouds.6 mph33%30.07 "HgN/A
4:00 PM84 °FThundershowers. Broken clouds.6 mph40%30.07 "HgN/A
3:30 PM84 °FPassing clouds.8 mph37%30.07 "HgN/A
3:00 PM84 °FPassing clouds.6 mph40%30.07 "HgN/A
2:30 PM84 °FPassing clouds.8 mph37%30.09 "HgN/A
2:00 PM86 °FPassing clouds.8 mph35%30.09 "HgN/A
1:30 PM84 °FPassing clouds.8 mph37%30.09 "HgN/A
1:00 PM86 °FPassing clouds.8 mph33%30.09 "HgN/A
12:30 PM86 °FPassing clouds.8 mph33%30.09 "HgN/A
12:00 PM84 °FPassing clouds.8 mph37%30.09 "HgN/A
11:30 AM84 °FPassing clouds.8 mph37%30.09 "HgN/A
11:00 AM84 °FPassing clouds.8 mph37%30.09 "HgN/A
10:30 AM82 °FPassing clouds.6 mph37%30.12 "HgN/A
10:00 AM82 °FPassing clouds.3 mph42%30.12 "HgN/A
9:30 AM77 °FSunny.3 mph57%30.12 "Hg10 mi
9:00 AM77 °FPassing clouds.3 mph57%30.12 "HgN/A
Weather by CustomWeather, © 2014

See weather overviewHow to use our weather pages